Regional Weather Roundup
Issued by NWS

Home | Current Version | Previous Version | Graphics & Text | Print | Product List | Glossary Off
Versions: 1 2 3 4 5 6 7 8 9 10 11 12 13 14 15 16 17 18 19 20 21 22 23 24 25 26 27 28 29 30 31 32 33 34 35 36 37 38 39 40 41 42 43 44 45 46 47 48 49 50

000
ASUS43 KMKX 271500
RWRWI

WISCONSIN REGIONAL WEATHER ROUNDUP
NATIONAL WEATHER SERVICE MILWAUKEE/SULLIVAN WI
900 AM CST THU NOV 27 2014

NOTE: "FAIR" INDICATES FEW OR NO CLOUDS BELOW 12,000 FEET WITH NO
SIGNIFICANT WEATHER AND/OR OBSTRUCTIONS TO VISIBILITY.

WIZ001-002-006>008-014>016-023>028-271600-
NORTHWEST WISCONSIN

CITY           SKY/WX    TMP DP  RH WIND       PRES   REMARKS
SUPERIOR ARPT  MOSUNNY   -4  -9  76 SW6       30.51R WCI -16
ASHLAND        PTSUNNY    2  -2  83 SW6       30.45R WCI  -9
HAYWARD        MOSUNNY   -4  -9  79 VRB5      30.43R WCI -15
SIREN          SUNNY     -4  -9  80 NW5       30.48S WCI -15
CUMBERLAND     SUNNY     -4  -9  77 N9        30.42S WCI -20
RICE LAKE      SUNNY     -2  -7  78 CALM      30.46R
CHETEK         SUNNY     -1  -6  79 NW3       30.44S
LADYSMITH      SUNNY     -2  -6  82 NW7       30.42R WCI -15
EAU CLAIRE     NOT AVBL
MENOMONIE      PTSUNNY    1  -6  75 W6        30.47S WCI -11
NEW RICHMOND   LGT SNOW  -1  -6  80 NW7       30.48S VSB 1   WCI -14
OSCEOLA        SUNNY     -1  -6  79 NW7       30.52S WCI -15
$$

WIZ003>005-009-010-017-018-271600-
NORTH CENTRAL WISCONSIN

CITY           SKY/WX    TMP DP  RH WIND       PRES   REMARKS
MANITOWISH WTR LGT SNOW  -1  -4  85 NW6       30.30S WCI -13
ARBOR VITAE    SUNNY      4   0  82 N6        30.30S WCI  -7
WOODRUFF       SUNNY      4   0  82 N6        30.30S WCI  -7
RHINELANDER    SUNNY      4   0  83 NW5       30.30R WCI  -5
EAGLE RIVER    SUNNY      4  -1  81 NW5       30.29R WCI  -5
LAND O LAKES   SUNNY      6   2  82 NW6       30.29R WCI  -4
PHILLIPS       SUNNY     -2  -5  84 CALM      30.34R
TOMAHAWK       SUNNY      3  -1  83 CALM      30.33S
MEDFORD        SUNNY      3  -2  79 NW9       30.34R WCI -12
MERRILL        SUNNY      7   1  76 N8        30.33S WCI  -6
$$

WIZ029-030-035-036-043>047-271600-
CENTRAL WISCONSIN

CITY           SKY/WX    TMP DP  RH WIND       PRES   REMARKS
WAUSAU         SUNNY      9   2  73 NW9       30.34R WCI  -4
MOSINEE        MOSUNNY    9   7  92 NW14      30.35R WCI  -8
MARSHFIELD     MOSUNNY    8   1  73 NW8       30.36R WCI  -4
STEVENS POINT  SUNNY     10   5  79 N10       30.34R WCI  -4
WAUPACA        PTSUNNY   17   9  72 NW8       30.35R WCI   6
WAUTOMA        NOT AVBL
WISC RAPIDS    CLOUDY    11   3  70 NW13      30.39R WCI  -4
CAMP DOUGLAS   CLOUDY     9   7  92 W13       30.40R WCI  -7
$$

WIZ011>013-019>022-031-037>040-048>050-271600-
NORTHEAST WISCONSIN

CITY           SKY/WX    TMP DP  RH WIND       PRES   REMARKS
ANTIGO         FLURRIES   6   2  85 NW6       30.29S WCI  -5
SHAWANO        CLOUDY    15   7  71 CALM      30.35R
OCONTO         MOSUNNY   13   6  72 NW8       30.34R WCI   2
STURGEON BAY   CLOUDY    16   5  62 N17G25    30.32R WCI   0
GREEN BAY      CLOUDY    16   8  71 N10       30.34R WCI   4
MANITOWOC      NOT AVBL
APPLETON       CLOUDY    18  10  73 N13       30.32R WCI   4
CLINTONVILLE   CLOUDY    16   9  73 N7        30.34R WCI   6
OSHKOSH        LGT SNOW  19  13  77 MISG      30.33R
$$

WIZ032>034-041-042-053>061-271600-
SOUTHWEST WISCONSIN

CITY           SKY/WX    TMP DP  RH WIND       PRES   REMARKS
LA CROSSE      SUNNY      9  -1  64 N15       30.47R WCI  -8
SPARTA         PTSUNNY    8   1  76 NW8       30.45R WCI  -5
VIROQUA        SUNNY      9   2  76 NW12      30.38R WCI  -6
BOSCOBEL       FLURRIES  18   9  68 N9        30.42R WCI   7
PRAIRIE DU CHI MOSUNNY   13   5  70 NW12      30.44R WCI  -1
PLATTEVILLE    CLOUDY    20  15  79 NW13      30.37R WCI   8
$$

WIZ056-057-062-063-064-067-068-271600-
SOUTH CENTRAL WISCONSIN

CITY           SKY/WX    TMP DP  RH WIND       PRES   REMARKS
REEDSBURG      LGT SNOW  16  12  85 NW12      30.37R WCI   3
BARABOO/DELLS  FLURRIES  16  11  80 NW10      30.36R WCI   3
LONE ROCK      NOT AVBL
MINERAL POINT  FLURRIES  21  14  73 NW13      30.34R WCI   9
MADISON        LGT SNOW  19  13  77 NW7       30.36R WCI  10
MIDDLETON      CLOUDY    21  13  72 NW10      30.35R WCI   9
WATERTOWN      MOSUNNY   18  14  84 NW9       30.33R WCI   7
MONROE         FLURRIES  23  19  86 NW9G16    30.32R WCI  13
JANESVILLE     NOT AVBL
$$

WIZ051-052-058>065-066-070>072-271600-
SOUTHEAST WISCONSIN

CITY           SKY/WX    TMP DP  RH WIND       PRES   REMARKS
MILWAUKEE      PTSUNNY   24  16  71 NW12      30.30R WCI  13
WAUKESHA       CLOUDY    18  16  93 NW12      30.32R WCI   5
MILWAUKEE/TIMM MOSUNNY   23  16  74 NW18      30.31R WCI   9
RACINE         MOSUNNY   23  17  78 NW16      30.31R WCI  10
BURLINGTON     CLOUDY    20  17  86 NW13G18   30.31R WCI   7
KENOSHA        CLOUDY    22  17  81 NW10      30.31R WCI  11
FOND DU LAC    CLOUDY    19  13  77 NW14      30.32R WCI   6
SHEBOYGAN      CLOUDY    20  13  74 N13       30.31R WCI   7
WEST BEND      FLURRIES  21  18  86 W10       30.30R WCI  10
JUNEAU         FLURRIES  16  12  83 W7        30.33R WCI   6
$$

LSZ147-162-271600-
LAKE SUPERIOR

STATION/POSITION TIME  TEMP    WIND        PRES    WAVE
                       AIR SEA DIR/SP/G            HT/PER
                 (UTC) (F)     (DEG/KT/KT) (MB)    (FT/S)
DEVILS ISLAND    1400    7     360/ 14/ 18 1032.3S
PORT WING        1440    8     350/ 12/ 24 1031.5S
SAXON HARBOR     1400   13     330/ 15/ 19 1029.5S
$$

LMZ867-665-643>646-271600-
LAKE MICHIGAN

STATION/POSITION TIME  TEMP    WIND        PRES    WAVE
                       AIR SEA DIR/SP/G            HT/PER
                 (UTC) (F)     (DEG/KT/KT) (MB)    (FT/S)
CHAMBERS ISLAND  1400   16     310/ 15/ 23 1026.4R
N MID LAKE BUOY  1350   21 42  320/ 21/ 27 1024.8R   5/ 5
NORTHPORT PIER   1407   19     320/ 25     1025.7R
KEWAUNEE LAKESHO 1400   17     350/ 12/ 15 1024.7R
SHEBOYGAN LAKESH 1400   21 35  330/ 16/ 20 1026.8R
PORT WASHINGTON  1440   25     310/  6/ 11 1026.8R
MILWAUKEE LAKESH 1400   23     310/ 11/ 15   N/A
S MID LAKE BUOY  1350   31 42  310/ 19/ 23 1024.0R   5/ 6
KENOSHA   LAKESH 1400   23     310/ 13/ 17 1025.1R
$$

TC  - TEMPERATURE IN CELSIUS
VSB - VISIBILITY IN STATUTE MILES
WCI - WIND CHILL INDEX
HX  - HEAT INDEX




USA.gov is the U.S. government's official web portal to all federal, state and local government web resources and services.